Regional Weather Roundup
Issued by NWS Newport/Morehead, NC

Current Version | Previous Version | Graphics & Text | Print | Product List | Glossary Off
Versions: 1 2 3 4 5 6 7 8 9 10 11 12 13 14 15 16 17 18 19 20 21 22 23 24 25 26 27 28 29 30 31 32 33 34 35 36 37 38 39 40 41 42 43 44 45 46 47 48 49 50

000
ASUS42 KMHX 182125
RWRMHX
WEATHER ROUNDUP FOR EASTERN NORTH CAROLINA
NATIONAL WEATHER SERVICE NEWPORT/MOREHEAD CITY NC
400 PM EST THU JAN 18 2018

NOTE: "FAIR" INDICATES FEW OR NO CLOUDS BELOW 12,000 FEET
WITH NO SIGNIFICANT WEATHER AND/OR OBSTRUCTIONS TO VISIBILITY

NCZ015>017-031-032-045>047-102-103-182200-
NORTH COAST

CITY           SKY/WX    TMP DP  RH WIND       PRES   REMARKS
EDENTON        FAIR      39  19  45 W9        30.17S
ELIZABETH CITY FAIR      36  21  54 W10       30.14F
KITTY HAWK     FAIR      33  19  56 MISG      30.13R
MANTEO         FAIR      35  18  50 NW7       30.14F

$$

NCZ045>047-081-094-103-104-182200-
CENTRAL COAST

CITY           SKY/WX    TMP DP  RH WIND       PRES   REMARKS
FRISCO         FAIR      35  22  58 W10G20    30.17F

$$

NCZ095-097-098-100-101-182200-
SOUTHERN COAST

CITY           SKY/WX    TMP DP  RH WIND       PRES   REMARKS
BEAUFORT       FAIR      38  16  40 W13       30.20F
CEDAR ISLAND   NOT AVBL
JACKSONVILLE   FAIR      38  18  44 W13       30.24S
PINEY ISLAND   NOT AVBL
WILMINGTON     FAIR      39  14  36 NW9       30.25F


$$

NCZ011>013-027>030-043-044-078>080-089-090>093-098-182200-
COASTAL PLAIN

CITY           SKY/WX    TMP DP  RH WIND       PRES   REMARKS
AHOSKIE        FAIR      34  20  58 CALM      30.19R
CLINTON        FAIR      37  20  49 W9        30.27S
ELIZABETHTOWN  NOT AVBL
GOLDSBORO      FAIR      36  19  49 W13       30.23R
GREENVILLE     FAIR      36  18  48 W8        30.23R
HAVELOCK       SUNNY     41  16  36 W9        30.22F
KENANSVILLE    FAIR      36  18  48 W10       30.26R
KINSTON        FAIR      36  18  48 W9G16     30.24R
NEW BERN       FAIR      38  17  42 W13       30.22S
RICHLANDS      FAIR      37  17  44 VRB7      30.25R
ROCKY MOUNT    NOT AVBL
WASHINGTON     FAIR      38  16  41 W9G17     30.21R
WHITEVILLE     FAIR      40  15  36 W7        30.26F

$$

AMZ130-135-150-152-154-156-158-170-250-252-270-ANZ085-086-088-633-658-670-182200-
MARINE OBSERVATIONS

STATION/POSITION TIME  TEMP    WIND        PRES    WAVE   SWELL
                       AIR SEA DIR/SP/G            HT/PER HT/PER
                 (UTC) (F)     (DEG/KT/KT) (MB)    (FT/S) (FT/S)
CHESAPEAKE LIGHT NOT AVBL
64 E VA BEACH    2050   38 58  300/ 21/ 27 1018.6    9/ 6   3/ 9
DUCK             2100   34 38  250/ 14/ 18 1019.8
2 E DUCK         2100      40                N/A     5/ 8   2/11
OREGON INLET     2100   36 38  260/  7/ 12 1020.6
13E OREGON INLT  2048      42                N/A     8/ 9   7/ 9
HATTERAS CG      2100   35 40  280/ 19/ 21 1021.1
DIAMOND BUOY     2110   38 42  300/ 21/ 25 1021.4
CAPE LOOKOUT     2100          280/ 13/ 16 1022.9
BEAUFORT LAB     2100   39 44  310/  7/ 12 1022.8
30 SE NEW RVR IN 2108   40 58  330/ 14/ 19 1023.9
30 SE NEW RVR IN 2100      57                N/A     5/11   2/11
27 SE WRIGHTSVLE 2108   40 59  310/ 16/ 25 1024.0
5 SE WRIGHTSVLE  2108   39 46  310/ 12/ 17 1024.0
225 S CAPE HAT   2050   54 70  330/ 21/ 27 1020.7   13/ 9
41 SE CHARLESTON 2110   44 67  330/ 14/ 17 1025.3

$$




USA.gov is the U.S. government's official web portal to all federal, state and local government web resources and services.